This demonstration page uses our WeatherBlox Daily Observations layout. Learn more.

40.92945, -100.16068

Hourly Observations for March 21, 2020

Temp ( °F °C ) Dew Point ( °F °C ) Humidity (%) Winds ( mph kmh ) Pressure ( in mb ) Visibility ( mi km ) Precip ( " mm )
12:15 am 00:15 Clear 23 -5.1 18 -7.8 82 82 ESE 8 13 30.61 1037 10 16.0934 0 0
12:35 am 00:35 Clear 23 -5.1 17 -8.4 78 78 ESE 13 20 30.61 1037 10 16.0934 0 0
12:55 am 00:55 Partly Cloudy 22 -5.4 17 -8.6 78 78 SE 10 17 30.61 1037 10 16.0934 0 0
1:15 am 01:15 Clear 22 -5.6 17 -8.6 80 80 SE 10 17 30.61 1036 10 16.0934 0 0
1:35 am 01:35 Clear 22 -5.7 17 -8.6 80 80 SE 10 17 30.61 1036 10 16.0934 0 0
1:55 am 01:55 Clear 22 -5.8 17 -8.4 82 82 SE 10 17 30.6 1036 10 16.0934 0 0
2:15 am 02:15 Clear 21 -5.9 17 -8.3 83 83 SE 10 17 30.6 1036 10 16.0934 0 0
2:35 am 02:35 Clear 21 -6 17 -8.2 85 85 SE 8 13 30.59 1036 10 16.0934 0 0
2:55 am 02:55 Clear 21 -6 17 -8.3 84 84 SE 12 19 30.58 1036 10 16.0934 0 0
3:15 am 03:15 Clear 21 -6.2 17 -8.4 85 85 SE 9 15 30.57 1035 10 16.0934 0 0
3:35 am 03:35 Clear 21 -6.3 17 -8.5 85 85 SE 9 15 30.57 1035 10 16.0934 0 0
3:55 am 03:55 Clear 20 -6.5 17 -8.6 85 85 SSE 9 15 30.57 1035 10 16.0934 0 0
4:15 am 04:15 Clear 20 -6.6 17 -8.5 87 87 SSE 9 15 30.56 1035 10 16.0934 0 0
4:35 am 04:35 Clear 20 -6.7 17 -8.6 87 87 SSE 9 15 30.55 1034 10 16.0934 0 0
4:55 am 04:55 Clear 20 -6.8 16 -8.7 87 87 SSE 8 13 30.54 1034 10 16.0934 0 0
5:15 am 05:15 Clear 19 -7 16 -8.7 88 88 SSE 9 15 30.54 1034 10 16.0934 0 0
5:35 am 05:35 Clear 19 -7 16 -8.7 88 88 SSE 9 15 30.54 1034 10 16.0934 0 0
5:55 am 05:55 Clear 19 -7.1 16 -8.7 89 89 SSE 8 13 30.54 1034 10 16.0934 0 0
6:15 am 06:15 Clear 19 -7.2 16 -8.7 89 89 SSE 9 15 30.54 1034 10 16.0934 0 0
6:35 am 06:35 Clear 19 -7 16 -8.7 88 88 S 9 15 30.54 1034 10 16.0934 0 0
6:55 am 06:55 Clear 19 -7.1 17 -8.6 89 89 S 12 19 30.54 1034 10 16.0934 0 0
7:15 am 07:15 Clear 19 -7.2 17 -8.6 90 90 SSE 9 15 30.54 1034 10 16.0934 0 0
7:35 am 07:35 Clear 19 -7.2 17 -8.6 90 90 S 9 15 30.54 1034 10 16.0934 0 0
7:55 am 07:55 Sunny 19 -7.2 16 -8.8 88 88 S 10 17 30.53 1034 10 16.0934 0 0
8:15 am 08:15 Sunny 20 -6.9 16 -8.7 87 87 S 12 19 30.53 1034 10 16.0934 0 0
8:35 am 08:35 Sunny 20 -6.5 17 -8.6 85 85 S 10 17 30.54 1034 10 16.0934 0 0
8:55 am 08:55 Sunny 21 -6 17 -8.3 84 84 S 13 20 30.53 1034 10 16.0934 0 0
9:15 am 09:15 Sunny 23 -5.2 18 -7.9 82 82 S 15 24 30.51 1033 10 16.0934 0 0
9:35 am 09:35 Sunny 24 -4.6 18 -7.6 80 80 S 15 24 30.51 1033 10 16.0934 0 0
9:55 am 09:55 Sunny 25 -3.9 19 -7.4 77 77 S 16 26 30.51 1033 10 16.0934 0 0
10:15 am 10:15 Sunny 27 -2.9 20 -6.5 77 77 S 16 26 30.49 1032 10 16.0934 0 0
10:35 am 10:35 Sunny 28 -2.5 20 -6.5 74 74 S 18 30 30.48 1032 10 16.0934 0 0
10:55 am 10:55 Sunny 29 -1.8 21 -6.1 73 73 S 14 22 30.47 1032 10 16.0934 0 0
11:15 am 11:15 Sunny 30 -0.9 22 -5.5 71 71 S 17 28 30.45 1031 10 16.0934 0 0
11:35 am 11:35 Sunny 32 -0.1 23 -5 70 70 S 16 26 30.43 1030 10 16.0934 0 0
11:55 am 11:55 Sunny 32 0.2 23 -5 68 68 S 14 22 30.43 1030 10 16.0934 0 0
12:15 pm 12:15 Sunny 34 1.2 24 -4.5 66 66 S 17 28 30.41 1030 10 16.0934 0 0
12:35 pm 12:35 Sunny 36 2 25 -4.1 64 64 S 16 26 30.39 1029 10 16.0934 0 0
12:55 pm 12:55 Sunny 37 3 26 -3.6 62 62 SSW 18 30 30.37 1028 10 16.0934 0 0
1:15 pm 13:15 Sunny 38 3.6 27 -2.8 63 63 S 21 33 30.34 1028 10 16.0934 0 0
1:35 pm 13:35 Sunny 40 4.2 28 -2.2 63 63 SSW 16 26 30.33 1027 10 16.0934 0 0
1:55 pm 13:55 Sunny 40 4.7 28 -2 62 62 S 15 24 30.3 1026 10 16.0934 0 0
2:15 pm 14:15 Sunny 43 6 31 -0.7 62 62 S 17 28 30.28 1025 10 16.0934 0 0
2:35 pm 14:35 Sunny 43 6.2 30 -1.2 59 59 SSW 16 26 30.27 1025 10 16.0934 0 0
2:55 pm 14:55 Sunny 44 6.9 31 -0.6 59 59 SSW 16 26 30.25 1024 10 16.0934 0 0
3:15 pm 15:15 Sunny 45 7.4 31 -0.6 57 57 SSW 13 20 30.24 1024 10 16.0934 0 0
3:35 pm 15:35 Sunny 47 8.3 31 -0.3 55 55 SSW 15 24 30.22 1023 10 16.0934 0 0
3:55 pm 15:55 Sunny 47 8.6 32 0 55 55 SSW 16 26 30.19 1022 10 16.0934 0 0
4:15 pm 16:15 Sunny 48 9 32 0.2 54 54 SSW 15 24 30.18 1022 10 16.0934 0 0
4:35 pm 16:35 Sunny 49 9.6 33 0.8 55 55 S 16 26 30.16 1021 10 16.0934 0 0
4:55 pm 16:55 Sunny 49 9.7 33 0.5 53 53 S 14 22 30.15 1021 10 16.0934 0 0
5:15 pm 17:15 Sunny 50 9.9 32 0.1 51 51 S 17 28 30.14 1021 10 16.0934 0 0
5:35 pm 17:35 Sunny 50 10.1 32 0.1 50 50 S 14 22 30.13 1020 10 16.0934 0 0
5:55 pm 17:55 Sunny 50 10 33 0.6 52 52 S 12 19 30.13 1020 10 16.0934 0 0
6:15 pm 18:15 Sunny 49 9.7 33 0.7 54 54 S 9 15 30.12 1020 10 16.0934 0 0
6:35 pm 18:35 Sunny 49 9.5 34 1 56 56 S 8 13 30.13 1020 10 16.0934 0 0
6:55 pm 18:55 Sunny 48 8.9 34 0.9 58 58 SSE 10 17 30.13 1020 10 16.0934 0 0
7:15 pm 19:15 Sunny 47 8.1 34 1.3 63 63 SSE 8 13 30.13 1020 10 16.0934 0 0
7:35 pm 19:35 Sunny 46 7.7 33 0.7 62 62 SSE 8 13 30.13 1020 10 16.0934 0 0
7:55 pm 19:55 Clear 46 7.6 32 0.2 60 60 SE 8 13 30.13 1020 10 16.0934 0 0
8:15 pm 20:15 Clear 45 7.2 32 0.2 61 61 SE 8 13 30.15 1021 10 16.0934 0 0
8:35 pm 20:35 Clear 44 6.8 32 0 62 62 SSE 9 15 30.15 1021 10 16.0934 0 0
8:55 pm 20:55 Clear 43 6.3 32 0 64 64 SSE 8 13 30.16 1021 10 16.0934 0 0
9:15 pm 21:15 Clear 43 6.1 32 0 65 65 SE 8 13 30.16 1021 10 16.0934 0 0
9:35 pm 21:35 Clear 41 4.8 32 0.1 72 72 SE 7 11 30.17 1022 10 16.0934 0 0
9:55 pm 21:55 Clear 40 4.5 32 -0.1 72 72 SE 7 11 30.18 1022 10 16.0934 0 0
10:15 pm 22:15 Clear 40 4.2 31 -0.3 73 73 SE 7 11 30.19 1022 10 16.0934 0 0
10:35 pm 22:35 Clear 40 4.2 32 -0.1 74 74 SE 7 11 30.19 1022 10 16.0934 0 0
10:55 pm 22:55 Clear 40 4.5 32 -0.2 72 72 SE 9 15 30.18 1022 10 16.0934 0 0
11:15 pm 23:15 Clear 39 4.1 31 -0.4 73 73 SE 8 13 30.19 1022 10 16.0934 0 0
11:35 pm 23:35 Clear 39 3.7 32 0 77 77 SSE 8 13 30.19 1022 10 16.0934 0 0
11:55 pm 23:55 Clear 39 4 32 0 75 75 SSE 8 13 30.19 1022 10 16.0934 0 0

Powered by AerisWeather